Weather History for Aurora, IL

Change the Weather History Date:

Saturday, January 25, 2014

  Actual Average Record
Temperature  
Mean Temperature 20 °F 21 °F  
Max Temperature 34 °F 29 °F 48 °F (2002)
Min Temperature 6 °F 12 °F -20 °F (2008)
Degree Days  
Heating Degree Days 45 44  
Month to date heating degree days 945 1102  
Since 1 July heating degree days 3774 3751  
Cooling Degree Days 0 0  
Month to date cooling degree days 0 0  
Year to date cooling degree days 0 0  
Moisture  
Dew Point 15 °F    
Average Humidity 66    
Maximum Humidity 85    
Minimum Humidity 46    
Precipitation  
Precipitation T in 0.06 in 0.00 in (2014)
Month to date precipitation 0.80 1.11  
Year to date precipitation 0.80 1.11  
Sea Level Pressure  
Sea Level Pressure 29.59 in    
Wind  
Wind Speed 21 mph (West)    
Max Wind Speed 39 mph    
Max Gust Speed 46 mph    
Visibility 7 miles    
Events Rain    
T = Trace of Precipitation, MM = Missing Value Source: NWS Daily Summary

Daily Weather History Graph

Daily Weather History Graph

Search for Another Location

Airport:

Trip Planner

Search our weather history database for the weather conditions in past years. The results will help you decide how hot, cold, wet, or windy it might be!

Date:

Astronomy

Jan. 25, 2014 Rise Set
Actual Time 7:12 AM CST 5:00 PM CST
Civil Twilight 6:42 AM CST 5:30 PM CST
Nautical Twilight 6:08 AM CST 6:04 PM CST
Astronomical Twilight 5:35 AM CST 6:37 PM CST
Moon 1:44 AM CST (1/25) 12:01 PM CST (1/25)
Length of Visible Light 10h 47m
Length of Day
9h 47m
Waning Crescent, 34% of the Moon is Illuminated
Jan 25
Waning Crescent
Jan 30
New
Feb 6
First Quarter
Feb 14
Full
Feb 22
Last Quarter

Hourly Weather History & Observations

Time (CST) Temp. Windchill Dew Point Humidity Pressure Visibility Wind Dir Wind Speed Gust Speed Precip Events Conditions
12:05 AM 28.9 °F 15.8 °F 25.0 °F 85% 29.46 in 3.0 mi SW 20.7 mph 31.1 mph 0.00 in   Overcast
12:08 AM 28.9 °F 15.4 °F 25.0 °F 85% 29.46 in 2.5 mi SW 21.9 mph 31.1 mph 0.00 in Rain Light Freezing Rain
12:13 AM 28.9 °F 15.8 °F 25.0 °F 85% 29.46 in 3.0 mi WSW 20.7 mph 31.1 mph 0.00 in Rain Light Freezing Rain
12:21 AM 28.9 °F 16.1 °F 25.0 °F 85% 29.46 in 5.0 mi WSW 19.6 mph 29.9 mph 0.00 in   Overcast
12:27 AM 28.9 °F 15.4 °F 25.0 °F 85% 29.45 in 5.0 mi SW 21.9 mph 28.8 mph 0.00 in   Overcast
12:42 AM 28.9 °F 15.8 °F 25.0 °F 85% 29.44 in 4.0 mi WSW 20.7 mph 29.9 mph 0.00 in Rain Light Freezing Rain
12:52 AM 28.9 °F 16.5 °F 25.0 °F 85% 29.47 in 4.0 mi SW 18.4 mph 27.6 mph 0.00 in Rain Light Freezing Rain
12:58 AM 28.9 °F 16.1 °F 26.1 °F 89% 29.44 in 4.0 mi WSW 19.6 mph 27.6 mph 0.00 in   Overcast
1:13 AM 28.9 °F 16.1 °F 26.1 °F 89% 29.43 in 4.0 mi SW 19.6 mph - 0.00 in Rain Light Freezing Rain
1:28 AM 30.0 °F 17.5 °F 27.0 °F 88% 29.43 in 6.0 mi WSW 19.6 mph 28.8 mph 0.00 in   Overcast
1:48 AM 30.2 °F 16.8 °F 28.4 °F 93% 29.42 in 4.0 mi WSW 23.0 mph 29.9 mph 0.00 in Rain Light Freezing Rain
1:52 AM 30.0 °F 16.6 °F 28.0 °F 92% 29.45 in 4.0 mi WSW 23.0 mph 29.9 mph 0.00 in Rain Light Freezing Rain
2:17 AM 30.9 °F 18.7 °F 28.9 °F 92% 29.42 in 5.0 mi WSW 19.6 mph - 0.00 in   Overcast
2:26 AM 30.9 °F 19.1 °F 28.9 °F 92% 29.42 in 4.0 mi WSW 18.4 mph - 0.00 in Rain Light Freezing Rain
2:45 AM 32.0 °F 20.8 °F 28.9 °F 88% 29.41 in 5.0 mi WSW 17.3 mph - 0.00 in   Overcast
2:52 AM 32.0 °F 19.8 °F 30.0 °F 92% 29.44 in 6.0 mi West 20.7 mph - 0.00 in   Overcast
3:05 AM 33.1 °F 20.1 °F 30.0 °F 89% 29.41 in 5.0 mi West 25.3 mph - 0.00 in Rain Light Freezing Rain
3:15 AM 33.1 °F 20.3 °F 30.0 °F 89% 29.41 in 7.0 mi West 24.2 mph - 0.00 in   Overcast
3:24 AM 33.1 °F 20.3 °F 30.0 °F 89% 29.41 in 7.0 mi West 24.2 mph - 0.00 in   Overcast
3:52 AM 34.0 °F 22.4 °F 28.9 °F 82% 29.44 in 9.0 mi West 20.7 mph - 0.00 in   Overcast
4:01 AM 33.1 °F 21.5 °F 28.0 °F 82% 29.42 in 9.0 mi WNW 19.6 mph - N/A   Overcast
4:52 AM 30.9 °F 19.1 °F 24.1 °F 76% 29.46 in 9.0 mi WNW 18.4 mph - N/A   Scattered Clouds
5:52 AM 28.0 °F 14.9 °F 19.0 °F 69% 29.49 in 10.0 mi WNW 19.6 mph - N/A   Clear
6:52 AM 26.1 °F 11.0 °F 16.0 °F 66% 29.50 in 10.0 mi WNW 24.2 mph 31.1 mph N/A   Clear
7:52 AM 23.0 °F 5.1 °F 9.0 °F 55% 29.55 in 10.0 mi WNW 31.1 mph 39.1 mph N/A   Mostly Cloudy
8:52 AM 19.9 °F 1.3 °F 6.1 °F 55% 29.59 in 10.0 mi WNW 29.9 mph 39.1 mph N/A   Overcast
9:52 AM 18.0 °F -2.0 °F -0.0 °F 45% 29.65 in 10.0 mi NW 32.2 mph 46.0 mph N/A   Overcast
10:52 AM 17.1 °F -2.7 °F -0.9 °F 45% 29.69 in 10.0 mi NNW 29.9 mph 38.0 mph N/A   Clear
11:52 AM 17.1 °F -1.4 °F -0.0 °F 47% 29.72 in 10.0 mi NW 25.3 mph 33.4 mph N/A   Clear
12:52 PM 15.1 °F -4.4 °F -2.0 °F 47% 29.75 in 10.0 mi NW 26.5 mph 38.0 mph N/A   Clear
1:52 PM 15.1 °F -4.0 °F 1.0 °F 54% 29.76 in 10.0 mi West 25.3 mph 33.4 mph N/A   Clear
2:52 PM 14.0 °F -6.2 °F 1.0 °F 56% 29.79 in 10.0 mi WNW 27.6 mph 34.5 mph N/A   Clear
3:52 PM 12.9 °F -6.5 °F -0.0 °F 56% 29.82 in 10.0 mi WNW 24.2 mph 29.9 mph N/A   Clear
4:52 PM 10.9 °F -7.5 °F -2.0 °F 56% 29.86 in 10.0 mi WNW 19.6 mph 27.6 mph N/A   Clear
5:52 PM 9.0 °F -6.6 °F -2.0 °F 61% 29.88 in 10.0 mi West 12.7 mph - N/A   Clear
6:52 PM 7.0 °F -13.1 °F -2.0 °F 67% 29.91 in 10.0 mi West 20.7 mph - N/A   Clear
7:52 PM 6.1 °F -12.8 °F -2.9 °F 67% 29.91 in 10.0 mi West 17.3 mph - N/A   Clear
8:52 PM 6.1 °F -10.2 °F -2.9 °F 67% 29.90 in 10.0 mi West 12.7 mph - N/A   Clear
9:52 PM 7.0 °F -8.3 °F -2.0 °F 67% 29.89 in 10.0 mi WNW 11.5 mph - N/A   Clear
10:52 PM 7.0 °F -4.5 °F -2.9 °F 64% 29.88 in 10.0 mi WNW 6.9 mph - N/A   Partly Cloudy
11:52 PM 8.1 °F -3.2 °F -2.9 °F 61% 29.84 in 10.0 mi West 6.9 mph - N/A   Overcast